Location: Evergreen Manor
(41.4083°N, 81.4939°W)
Time: 20:03:43
(UTC+00:00)

STARLINK 1042 - Pass Details

Date: 11 December 2019
Orbit: 549 x 550 km, 53.0° (Epoch: 29 January)

Event Time Altitude Azimuth Distance (km) Brightness Sun altitude
Exits shadow 10:49:34 59° 315° (NW) 620 3.5 -20.3°
Maximum altitude 10:50:18 86° 39° (NE) 538 3.5 -20.2°
Drops below altitude 10° 10:54:20 10° 128° (SE) 1,777 7.2 -19.4°
Sets 10:56:32 0° 128° (SE) 2,666 8.3 -19.0°
